Regional Weather Roundup
Issued by NWS

Home | Current Version | Previous Version | Text Only | Print | Product List | Glossary Off
Versions: 1 2 3 4 5 6 7 8 9 10 11 12 13 14 15 16 17 18 19 20 21 22 23 24 25 26 27 28 29 30 31 32 33 34 35 36 37 38 39 40 41 42 43 44 45 46 47 48 49 50

000
ASUS45 KPSR 050210
RWRAZ

ARIZONA HOURLY REGIONAL WEATHER ROUNDUP
NATIONAL WEATHER SERVICE PHOENIX AZ
700 PM MST WED MAY 04 2016

NOTE: FAIR INDICATES FEW OR NO CLOUDS BELOW 12,000 FEET WITH NO
SIGNIFICANT WEATHER AND/OR OBSTRUCTIONS TO VISIBILITY.

AZZ001>003-036-050300-
NORTHWEST ARIZONA

CITY           SKY/WX    TMP DP  RH WIND       PRES   REMARKS
BULLHEAD CITY  CLOUDY    95  25   8 S16       29.68F
KINGMAN        PTCLDY    81  22  11 S9        29.87S
$$

AZZ004>008-015-016-018-050300-
NORTH CENTRAL ARIZONA

CITY           SKY/WX    TMP DP  RH WIND       PRES   REMARKS
GRAND CANYON   PTCLDY    69  23  17 S6        30.11F
WILLIAMS       CLEAR     66  18  15 S9        30.20R
PRESCOTT       CLEAR     75  18  11 S12       30.01F
FLAGSTAFF      CLEAR     64  23  21 S5        30.16S
PAYSON         CLEAR     77  23  13 CALM      30.05S
PAGE           CLEAR     80  25  13 SE7       29.94F
$$

AZZ009>014-017-050300-
NORTHEAST ARIZONA

CITY           SKY/WX    TMP DP  RH WIND       PRES   REMARKS
WINSLOW        CLEAR     78  21  12 S13       30.03S
SAINT JOHNS    PTCLDY    75  28  17 W3        30.07R
WINDOW ROCK    CLEAR     69  25  19 E3        30.16S
SHOW LOW       CLEAR     68  19  15 S14       30.15R
$$

AZZ023-050300-
GREATER PHOENIX AREA

CITY           SKY/WX    TMP DP  RH WIND       PRES   REMARKS
PHOENIX        PTCLDY    97  24   7 SW8       29.70S
BUCKEYE        CLEAR     91  19   7 SW18      29.75R
GLENDALE       PTCLDY    97  23   7 SW20G25   29.73R
LUKE AFB       CLEAR     94  27   9 SW17      29.71R
DEER VALLEY    CLEAR     96  23   7 S7        29.72F
SCOTTSDALE     CLEAR     96  17   5 SW6       29.74F
MESA-FALCON    CLEAR    N/A N/A N/A W12       29.70
MESA-GATEWAY   PTCLDY    97  25   7 W9        29.73S
CHANDLER       PTCLDY    99  21   6 SW8       29.71F
$$

AZZ027-028-050300-
SOUTHWEST MARICOPA COUNTY AND PINAL COUNTY

CITY           SKY/WX    TMP DP  RH WIND       PRES   REMARKS
CASA GRANDE    CLEAR     95  30  10 W10       29.75S
GILA BEND      CLEAR     92  20   7 SW17      29.72R
$$

AZZ503-504-507>509-050300-
SOUTHEAST ARIZONA

CITY           SKY/WX    TMP DP  RH WIND       PRES   REMARKS
TUCSON         PTCLDY    93  18   6 W8        29.84R
DAVIS-MONTHAN  CLEAR     92  17   6 NW10      29.83R
RYAN FIELD     CLEAR     91  45  19 SW12      29.82S
NOGALES        CLEAR     83  21  10 SW10      29.95R
SIERRA VISTA   PTCLDY    79  18  10 VRB6      30.00S
DOUGLAS        CLEAR     81  25  12 E6        29.96S
SAFFORD        CLEAR     87  26  11 E15       29.91S
$$

AZZ020-021-025-026-031-050300-
SOUTHWEST ARIZONA

CITY           SKY/WX    TMP DP  RH WIND       PRES   REMARKS
YUMA           PTCLDY    89  33  13 S15       29.71S
$$

CAZ031-033-041-043-047-048-061-050300-
SOUTHERN CALIFORNIA

CITY           SKY/WX    TMP DP  RH WIND       PRES   REMARKS
DOWNTOWN L.A.  CLEAR     62  52  69 VRB3      29.90R
L.A. AIRPORT   PTCLDY    61  52  72 W10       29.90F
SAN DIEGO      MOCLDY    64  50  60 NW3       29.95F
BURBANK        CLEAR     61  51  70 S13       29.87S
ONTARIO        PTCLDY    65  51  60 W15       29.88R
RIVERSIDE      PTCLDY    64  51  62 W9        29.89R
PALM SPRINGS   PTCLDY    87  42  20 W23G35    29.71R
EL CENTRO NAS  MOCLDY    89  29  11 S16G30    29.70R
IMPERIAL       MOCLDY    92  33  12 SE16      29.66S
BLYTHE         PTCLDY    93  36  13 S16       29.68F
NEEDLES        MOCLDY    95  25   8 SW13G21   29.68F
$$

NVZ020-UTZ003-050300-
SOUTHERN NEVADA-UTAH

CITY           SKY/WX    TMP DP  RH WIND       PRES   REMARKS
LAS VEGAS      MOCLDY    89  21   8 S8        29.72F
SALT LAKE CITY MOCLDY    75  38  26 N10       29.94S
$$

NMZ009-TXZ055-050300-
NEW MEXICO-WEST TEXAS

CITY           SKY/WX    TMP DP  RH WIND       PRES   REMARKS
ALBUQUERQUE    CLEAR     74  22  14 S7        30.15S
EL PASO        CLEAR     79  20  11 E5        30.07R
$$


........................KEY........................
SKY/WX - SKY CONDITION/WEATHER
TMP    - TEMPERATURE IN FAHRENHEIT
DP     - DEW POINT IN FAHRENHEIT
RH     - RELATIVE HUMIDITY IN PERCENT
WIND   - DIRECTION AND SPEED IN MILES PER HOUR (MPH)
VRB    - VARIABLE WIND DIRECTION
PRES   - MEAN SEA LEVEL PRESSURE IN INCHES OF MERCURY
         F - FALLING PRESSURE   R - RISING PRESSURE
         S - STEADY PRESSURE
VSB    - VISIBILITY IN MILES
HX     - HEAT INDEX IN FAHRENHEIT
WCI    - WIND CHILL INDEX IN FAHRENHEIT
TC     - TEMPERATURE IN CELSIUS WHICH IS ALSO KNOWN AS
         TEMPERATURE IN CENTIGRADE
AFB    - AIR FORCE BASE
         LUKE AFB IS LUKE AIR FORCE BASE
         DAVIS-MONTHAN IS DAVIS-MONTHAN AIR FORCE BASE
NAS    - NAVAL AIR STATION
         EL CENTRO NAS IS EL CENTRO NAVAL AIR STATION
N/A    - NOT AVAILABLE




USA.gov is the U.S. government's official web portal to all federal, state and local government web resources and services.